Погода в Банффе

Канада     51°10′45″N   115°34′09″W
темп.,
°C
ветер,
м/с
пор.,
м/с
влажн.,
%
обл.,
%
осадки,
мм/ч
давл.,
гПа
погр.,
м
22 апреля, чт
чт2200:00−4ссз2294100 0.0 101328
03:00−3св3398100 3.5 1011288
06:00−6всв3396100 7.1 1018177
09:00−7всв3384100 0.4 1019754
12:00−6всв2383100 0.9 10201092
15:00−6в2287100 1.5 1019859
18:00−5в2279100 1.9 1018807
21:00−10в229899 0.4 102318
23 апреля, пт
пт2300:00−15св2110082 0.4 102710
03:00−17с229896 0.0 102810
06:00−14с1196100 0.1 102516
09:00−8вюв1189100 0.3 1021350
12:00−5юв2283100 0.6 1017959
15:00−3юв1181100 0.7 1014986
18:00−2юв2175100 1.3 1012715
21:00−5в2297100 1.1 1014148
24 апреля, сб
сб2400:00−6всв2297100 2.8 101597
03:00−10св119893 0.4 101810
06:00−13ссв119999 0.4 101910
09:00−6в1190100 0.1 1014316
12:00−3в2285100 0.3 1010787
15:00−2в2285100 0.4 1007835
18:00−3в2389100 1.0 1006584
21:00−5в2297100 0.7 100787
25 апреля, вс
вс2500:00−6всв1297100 1.3 100654
03:00−6св1297100 0.6 100460
06:00−6св2297100 1.5 100498
09:00−5всв2293100 0.9 1003411
12:00−4всв3389100 2.3 1004755
15:00−3всв2285100 1.2 1003829
18:00−4в2392100 2.9 1003528
21:00−6в2297100 1.3 1005104
26 апреля, пн
пн2600:00−7в1198100 1.9 100631
03:00−13с1110095 0.1 10099
06:00−14зсз2210092 0.1 101121
09:00−7з239386 0.0 1005240
12:00−1зюз237950 0.1 10001017
15:000зюз246799 0.2 10001526
18:000зюз2368100 0.3 1001987
21:00−7зсз118940 0.1 100810